Simultaneous Nadir Overpasses (SNOs) Predictions

Prediction of SNOs between TERRA and METOP-C Satellite Orbit:

Table of predicted SNOs for the next 14.0 days since TLE Epoch: 8/13/2022
Index Date (TERRA) Time (TERRA) Lat,Lon (TERRA) SZA (TERRA ) Date (METOP-C) Time (METOP-C) Lat,Lon (METOP-C) SZA (METOP-C ) Distance(km) Time Diff (sec)
1 08/13/2022 13:03:11 81.15, 24.26 68.58 08/13/2022 13:02:13 81.14, 24.12 68.54 2.52 58
2 08/13/2022 13:52:37 -81.16,-167.81 111.37 08/13/2022 13:52:51 -81.17,-167.69 111.34 2.17 14
3 08/16/2022 08:37:22 81.16, 90.85 69.49 08/16/2022 08:36:33 81.16, 90.90 69.47 0.82 49
4 08/16/2022 09:26:48 -81.18,-101.19 110.46 08/16/2022 09:27:12 -81.17,-101.31 110.46 2.13 24
5 08/19/2022 04:11:33 81.16, 157.35 70.41 08/19/2022 04:10:54 81.15, 157.26 70.38 1.79 39
6 08/19/2022 05:00:59 -81.18, -34.66 109.53 08/19/2022 05:01:32 -81.18, -34.58 109.51 1.40 33
7 08/21/2022 23:45:43 81.16,-136.23 71.35 08/21/2022 23:45:13 81.16,-136.03 71.36 3.31 30
8 08/22/2022 00:35:10 -81.16, 31.43 108.64 08/22/2022 00:35:53 -81.17, 31.36 108.62 1.25 43
9 08/24/2022 19:19:54 81.15, -69.89 72.30 08/24/2022 19:19:34 81.16, -69.75 72.32 2.52 20



Historial Predications of SNOs between TERRA and METOP-C
